Location: Ferques
(50.8300°N, 1.7599°E)
Time: 05:28:36
(UTC+00:00)

Cosmos 1867 - Pass Details

Date: 19 May 2025
Orbit: 775 x 798 km, 65.0° (Epoch: 18 June)

Event Time Altitude Azimuth Distance (km) Brightness Sun altitude
Rises 21:29:48 0° 317° (NW) 3,313 8.7 -12.8°
Reaches altitude 10° 21:32:17 10° 313° (NW) 2,379 7.4 -13.0°
Maximum altitude 21:37:36 54° 238° (WSW) 970 4.0 -13.5°
Enters shadow 21:41:23 19° 167° (SSE) 1,825 4.9 -13.8°
